www.pogodaiklimat.ru

Погода и климат >> Архив погоды >> Дания >> Стенхой


ПОГОДА в Стенхое

  • Прогноз погоды в Стенхое
  • Монитор погоды в Стенхое

АРХИВ ПОГОДЫ в Стенхое

Время (UTC), дата Ветер
(напр.,м/с)
 
Видим.   Явления Облачность Т
(С)
Тd
(С)
f
(%)
Тe
(С)
Тes
(С)
Комфортность P
(гПа)
Po
(гПа)
Тmin
(С)
Tmax
(С)
R
(мм)
R24
(мм)
S
(см)
13 18.06 ЮЗ 1 н/о н/о +21.3 +17.0 76 +25 +25 комфорт 1014.1 1007.5
14 18.06 Ю 3 н/о н/о +18.6 +17.0 90 +20 +20 1014.5 1007.8
18 18.06 ЮЗ 1
{24}
н/о н/о +17.8 +16.7 93 +19 +19 1013.1 1006.4 +15.0 +22.3
19 18.06 Ю 2 н/о н/о +18.0 +17.2 95 +19 +19 1013.1 1006.4
20 18.06 З 2 н/о н/о +16.8 +15.3 91 +17 +17 1013.3 1006.6
21 18.06 СЗ 2 н/о н/о +15.0 +12.5 85 +15 +15 1013.1 1006.4
22 18.06 СЗ 1 н/о н/о +13.9 +12.7 92 +14 +14 1013.4 1006.6
23 18.06 СЗ 2 н/о н/о +13.0 +12.2 95 +12 +12 1013.2 1006.4
00 19.06 штиль 0 н/о н/о +12.9 +12.4 97 +12 +12 1012.9 1006.1
01 19.06 штиль 0 н/о н/о +11.3 +10.9 97 +11 +11 1012.7 1005.9
02 19.06 штиль 0 н/о н/о +11.7 +11.5 99 +11 +11 1012.6 1005.8
03 19.06 штиль 0 н/о н/о +10.5 +10.3 99 +10 +10 1012.6 1005.8
04 19.06 штиль 0 н/о н/о +11.0 +10.9 99 +10 +10 1012.3 1005.5
05 19.06 штиль 0 н/о н/о +12.1 +12.0 99 +11 +11 1012.3 1005.5
06 19.06 С 2 н/о н/о +14.4 +13.9 97 +14 +14 1011.8 1005.1 +10.3 +18.1
07 19.06 СВ 2 н/о н/о +16.8 +14.0 84 +17 +17 1011.7 1005.0
08 19.06 СВ 2 н/о н/о +17.6 +13.1 75 +18 +18 1011.7 1005.0
09 19.06 В 2 н/о н/о +19.5 +14.6 73 +22 +22 комфорт 1011.2 1004.5
10 19.06 В 3 н/о н/о +19.5 +13.5 68 +21 +21 комфорт 1010.9 1004.3
11 19.06 В 4 н/о н/о +20.3 +15.2 73 +23 +23 комфорт 1010.4 1003.8
12 19.06 В 5 н/о н/о +20.1 +16.0 77 +23 +23 комфорт 1009.9 1003.3
13 19.06 В 5 н/о н/о +20.2 +17.4 84 +23 +23 комфорт 1009.0 1002.4
14 19.06 ЮВ 4 н/о н/о +20.3 +17.0 81 +23 +23 комфорт 1008.8 1002.2
15 19.06 В 4 н/о н/о +20.3 +17.1 82 +24 +24 комфорт 1007.5 1000.9
16 19.06 В 3 н/о н/о +20.7 +17.1 80 +25 +25 комфорт 1006.6 1000.1
17 19.06 В 3 н/о н/о +19.9 +16.7 82 +23 +23 комфорт 1006.0 999.4
18 19.06 В 3 н/о н/о +18.6 +16.8 89 +20 +20 1005.6 999.0 +14.4 +21.3
19 19.06 ЮВ 4 н/о н/о +19.5 +16.9 85 +22 +22 комфорт 1004.6 998.1
20 19.06 Ю 5 н/о н/о +18.3 +16.0 86 +18 +18 1005.0 998.4
21 19.06 ЮВ 4 н/о н/о +17.7 +14.7 83 +17 +17 1004.6 998.0
22 19.06 Ю 5 н/о н/о +18.0 +14.3 79 +18 +18 1004.6 998.0
23 19.06 Ю 5 н/о н/о +17.3 +15.3 88 +17 +17 1004.8 998.2
00 20.06 Ю 4 н/о н/о +17.1 +15.9 93 +17 +17 1004.7 998.1
01 20.06 Ю 3 н/о н/о +16.9 +15.9 94 +17 +17 1004.3 997.7
02 20.06 ЮЗ 3 н/о н/о +16.2 +15.4 95 +16 +16 1004.3 997.6
03 20.06 ЮЗ 2 н/о н/о +15.4 +14.9 97 +15 +15 1004.3 997.6
04 20.06 ЮЗ 3 н/о н/о +16.0 +15.6 97 +16 +16 1004.5 997.9
05 20.06 З 3 н/о н/о +15.9 +15.2 96 +16 +16 1004.6 998.0
06 20.06 ЮЗ 3 н/о н/о +16.4 +15.4 94 +16 +16 1004.9 998.3 +14.9 +19.9
07 20.06 ЮЗ 2 н/о н/о +16.3 +15.7 96 +17 +17 1005.0 998.4
08 20.06 ЮЗ 3 н/о н/о +15.9 +15.5 97 +15 +15 1005.3 998.7
09 20.06 ЮЗ 3 н/о н/о +16.3 +15.8 97 +16 +16 1005.6 999.0
10 20.06 ЮЗ 3 н/о н/о +17.2 +16.3 94 +17 +17 1005.9 999.2
11 20.06 ЮЗ 3 н/о н/о +18.6 +16.3 86 +20 +20 1006.0 999.3
12 20.06 ЮЗ 4 н/о н/о +18.4 +16.3 88 +19 +19 1006.1 999.5
13 20.06 З 5 н/о н/о +17.5 +16.5 94 +17 +17 1006.3 999.7
14 20.06 З 6 н/о н/о +16.3 +15.0 92 +15 +15 1007.1 1000.4
15 20.06 З 6 н/о н/о +15.5 +14.2 92 +14 +14 1007.7 1001.0
16 20.06 З 5 н/о н/о +14.3 +13.2 93 +12 +12 1008.3 1001.5
17 20.06 З 6 н/о н/о +14.3 +12.4 88 +12 +12 1008.8 1002.0
18 20.06 З 6 н/о н/о +13.2 +11.0 87 +11 +11 1009.6 1002.8 +13.2 +19.5
19 20.06 З 5 н/о н/о +13.2 +10.9 86 +11 +11 1010.1 1003.3
20 20.06 З 4 н/о н/о +12.9 +11.2 89 +11 +11 1010.4 1003.7
21 20.06 З 3 н/о н/о +12.5 +10.8 89 +11 +11 1010.9 1004.1
22 20.06 ЮЗ 2 н/о н/о +12.1 +10.9 92 +11 +11 1011.3 1004.5
23 20.06 З 2 н/о н/о +12.0 +11.0 94 +11 +11 1011.7 1004.9
00 21.06 ЮЗ 2 н/о н/о +11.5 +10.7 95 +10 +10 1011.8 1005.0
01 21.06 Ю 2 н/о н/о +10.1 +9.5 96 +8 +8 1011.9 1005.1
02 21.06 ЮЗ 2 н/о н/о +10.1 +9.5 96 +8 +8 1012.0 1005.2
03 21.06 Ю 2 н/о н/о +10.2 +9.8 97 +9 +9 1012.2 1005.4
04 21.06 ЮЗ 2 н/о н/о +11.1 +10.5 96 +10 +10 1012.6 1005.8
05 21.06 ЮЗ 3 н/о н/о +12.3 +11.4 94 +11 +11 1012.9 1006.1
06 21.06 З 5 н/о н/о +14.4 +10.3 76 +13 +13 1013.0 1006.2 +10.0 +14.4
07 21.06 З 4 н/о н/о +14.3 +9.5 73 +13 +13 1013.5 1006.7
08 21.06 З 4 н/о н/о +15.3 +8.8 65 +14 +14 1013.8 1007.0
09 21.06 ЮЗ 5 н/о н/о +16.2 +7.2 55 +15 +15 1014.0 1007.3
10 21.06 З 3 н/о н/о +16.7 +8.3 58 +16 +16 1013.9 1007.2
11 21.06 ЮЗ 4 н/о н/о +16.4 +8.5 60 +16 +16 1014.1 1007.4
12 21.06 СЗ 3 н/о н/о +12.7 +10.6 87 +11 +11 1014.5 1007.7
13 21.06 СЗ 4 н/о н/о +10.9 +9.2 89 +9 +9 1015.3 1008.4
14 21.06 ЮВ 1 н/о н/о +11.5 +9.5 88 +12 +12 1015.5 1008.7
15 21.06 З 3
{10}
н/о н/о +11.9 +10.4 91 +10 +10 1015.1 1008.3
16 21.06 З 3 н/о н/о +13.7 +10.0 78 +13 +13 1015.1 1008.3
17 21.06 З 6 н/о н/о +13.6 +9.7 77 +12 +12 1015.7 1008.9
18 21.06 З 6
{10}
н/о н/о +12.6 +9.4 81 +10 +10 1015.9 1009.1 +10.4 +17.0
19 21.06 З 6 н/о н/о +11.8 +8.5 80 +9 +9 1016.3 1009.4
20 21.06 З 4 н/о н/о +10.4 +8.8 90 +8 +8 1017.0 1010.1
21 21.06 З 3 н/о н/о +9.5 +8.2 92 +7 +7 1017.6 1010.7
22 21.06 ЮЗ 4 н/о н/о +9.4 +8.0 91 +7 +7 1018.1 1011.2
23 21.06 ЮЗ 4 н/о н/о +8.5 +7.7 95 +5 +5 1018.7 1011.8
00 22.06 З 3 н/о н/о +8.8 +7.7 93 +6 +6 1019.2 1012.3
01 22.06 З 4 н/о н/о +9.1 +7.9 92 +6 +6 1019.7 1012.8
02 22.06 З 3 н/о н/о +8.8 +7.6 92 +6 +6 1020.2 1013.3
03 22.06 ЮЗ 3 н/о н/о +7.6 +6.9 95 +5 +5 1020.6 1013.6
04 22.06 ЮЗ 2 н/о н/о +8.9 +8.0 94 +7 +7 1021.0 1014.1
05 22.06 З 5 н/о н/о +11.8 +9.4 85 +9 +9 1021.4 1014.5
06 22.06 З 6 н/о н/о +13.0 +9.2 78 +11 +11 1021.6 1014.8 +7.2 +13.0
07 22.06 З 6 н/о н/о +13.4 +9.3 76 +11 +11 1022.4 1015.6
08 22.06 З 6 н/о н/о +14.4 +9.2 71 +13 +13 1023.0 1016.2
09 22.06 З 7 н/о н/о +13.9 +9.3 74 +12 +12 1023.4 1016.5
10 22.06 З 7 н/о н/о +14.7 +8.8 68 +13 +13 1023.9 1017.0
11 22.06 З 7 н/о н/о +15.5 +8.5 63 +14 +14 1024.0 1017.2
12 22.06 З 7 н/о н/о +16.0 +9.3 64 +15 +15 1024.2 1017.4
13 22.06 З 7 н/о н/о +15.8 +9.0 64 +14 +14 1024.4 1017.6
14 22.06 З 6 н/о н/о +15.9 +8.2 60 +15 +15 1024.4 1017.6
15 22.06 З 6 н/о н/о +15.7 +7.3 57 +14 +14 1024.3 1017.5
16 22.06 З 6 н/о н/о +15.3 +7.2 58 +14 +14 1024.3 1017.5
17 22.06 З 5 н/о н/о +15.1 +7.3 60 +14 +14 1024.2 1017.4
18 22.06 З 5 н/о н/о +14.3 +7.6 64 +13 +13 1024.3 1017.5 +12.4 +16.3
19 22.06 З 4 н/о н/о +11.8 +8.3 79 +10 +10 1024.2 1017.3
20 22.06 ЮЗ 2 н/о н/о +10.8 +8.5 86 +9 +9 1024.6 1017.7
21 22.06 ЮЗ 3 н/о н/о +9.4 +8.3 93 +7 +7 1024.9 1017.9
22 22.06 ЮЗ 2 н/о н/о +8.9 +7.8 93 +7 +7 1025.0 1018.1
23 22.06 ЮЗ 1 н/о н/о +9.3 +8.0 92 +10 +10 1025.1 1018.2
00 23.06 штиль 0 н/о н/о +9.2 +8.1 93 +8 +8 1025.2 1018.3
01 23.06 ЮЗ 1 н/о н/о +9.1 +8.1 93 +8 +8 1025.4 1018.4
02 23.06 штиль 0 н/о н/о +8.6 +7.8 95 +8 +8 1025.5 1018.5
03 23.06 ЮЗ 1 н/о н/о +9.1 +7.9 92 +8 +8 1025.6 1018.6
04 23.06 ЮЗ 2 н/о н/о +8.8 +8.0 95 +7 +7 1025.7 1018.7
05 23.06 ЮЗ 2 н/о н/о +11.2 +10.1 93 +10 +10 1026.0 1019.1
06 23.06 ЮЗ 2 н/о н/о +13.6 +11.3 86 +13 +13 1026.4 1019.5 +7.8 +14.3
07 23.06 З 2 н/о н/о +15.1 +11.1 77 +15 +15 1026.3 1019.5
08 23.06 СЗ 2 н/о н/о +16.1 +9.2 64 +16 +16 1026.4 1019.6
09 23.06 С 2 н/о н/о +16.9 +9.2 60 +17 +17 1026.4 1019.6
10 23.06 ЮЗ 1 н/о н/о +18.5 +8.5 52 +20 +20 1026.4 1019.6
11 23.06 З 2 н/о н/о +18.3 +7.9 51 +19 +19 1026.2 1019.5
12 23.06 В 3 н/о н/о +18.0 +11.0 64 +18 +18 1026.1 1019.4
13 23.06 В 2 н/о н/о +18.0 +11.6 66 +19 +19 1026.2 1019.5
14 23.06 СВ 3 н/о н/о +17.7 +10.6 63 +18 +18 1026.4 1019.7
15 23.06 В 2 н/о н/о +17.6 +11.4 67 +18 +18 1026.3 1019.6
16 23.06 ЮВ 3 н/о н/о +17.1 +10.3 64 +17 +17 1025.9 1019.2
17 23.06 В 3 н/о н/о +16.2 +9.8 66 +16 +16 1025.7 1018.9
18 23.06 В 2 н/о н/о +16.4 +10.1 66 +17 +17 1025.7 1018.9 +13.5 +19.1
19 23.06 ЮВ 2 н/о н/о +14.2 +10.4 78 +14 +14 1026.1 1019.2
20 23.06 ЮВ 2 н/о н/о +12.8 +10.0 83 +12 +12 1026.4 1019.5
21 23.06 Ю 2 н/о н/о +11.6 +9.2 85 +11 +11 1026.9 1020.0
22 23.06 штиль 0 н/о н/о +11.8 +9.5 86 +11 +11 1027.1 1020.2
23 23.06 штиль 0 н/о н/о +9.5 +8.5 93 +9 +9 1027.4 1020.5
00 24.06 Ю 1 н/о н/о +10.1 +9.0 93 +10 +10 1027.6 1020.7
01 24.06 В 1 н/о н/о +8.1 +7.1 93 +8 +8 1027.9 1020.9
02 24.06 штиль 0 н/о н/о +8.9 +8.1 95 +8 +8 1028.0 1021.0
03 24.06 В 3 н/о н/о +9.2 +8.5 95 +7 +7 1028.1 1021.1
04 24.06 В 1 н/о н/о +8.8 +7.7 93 +8 +8 1028.5 1021.5
05 24.06 В 2 н/о н/о +14.4 +12.1 86 +14 +14 1028.0 1021.1
06 24.06 В 2 н/о н/о +15.1 +12.7 86 +15 +15 1028.1 1021.3 +7.3 +16.4
07 24.06 ЮВ 3 н/о н/о +15.9 +12.0 78 +16 +16 1028.5 1021.7
08 24.06 В 3 н/о н/о +16.1 +11.6 75 +16 +16 1028.4 1021.6
09 24.06 В 3 н/о н/о +17.7 +9.6 59 +18 +18 1028.6 1021.9
10 24.06 В 4 н/о н/о +18.1 +8.3 53 +18 +18 1028.5 1021.7
11 24.06 В 3 н/о н/о +18.9 +8.6 51 +20 +20 1028.6 1021.9
12 24.06 В 3 н/о н/о +18.7 +7.5 48 +19 +19 1028.0 1021.2
13 24.06 В 4 н/о н/о +18.8 +8.9 53 +19 +19 1027.9 1021.2
14 24.06 В 4 н/о н/о +18.6 +11.2 62 +19 +19 1027.2 1020.5
15 24.06 В 3 н/о н/о +19.1 +10.4 57 +20 +20 1027.1 1020.4
16 24.06 В 3 н/о н/о +18.8 +10.7 59 +20 +20 1026.6 1019.9
17 24.06 В 3 н/о н/о +18.5 +11.4 63 +19 +19 1026.1 1019.3
18 24.06 В 3 н/о н/о +18.0 +11.7 67 +18 +18 1026.2 1019.4 +15.1 +19.6
19 24.06 В 3 н/о н/о +15.8 +12.8 82 +15 +15 1025.9 1019.1
20 24.06 В 3 н/о н/о +15.2 +13.2 88 +14 +14 1025.9 1019.1
21 24.06 В 3 н/о н/о +13.8 +12.7 93 +13 +13 1026.3 1019.4
22 24.06 В 3 н/о н/о +14.8 +13.0 89 +14 +14 1026.0 1019.2
23 24.06 В 3 н/о н/о +14.9 +12.1 83 +14 +14 1025.8 1019.0
00 25.06 В 2 н/о н/о +14.4 +12.4 88 +14 +14 1026.0 1019.1
01 25.06 ЮВ 3 н/о н/о +15.2 +12.6 84 +15 +15 1025.7 1018.9
02 25.06 ЮВ 4 н/о н/о +14.8 +12.1 84 +14 +14 1025.2 1018.4
03 25.06 ЮВ 4 н/о н/о +14.9 +11.9 82 +14 +14 1024.9 1018.1
05 25.06 ЮВ 4 н/о н/о +15.8 +14.1 90 +15 +15 1024.3 1017.5
06 25.06 ЮВ 5 н/о н/о +16.3 +14.4 89 +15 +15 1024.2 1017.4 +13.7 +18.1
07 25.06 ЮВ 5 н/о н/о +17.1 +15.2 89 +16 +16 1024.0 1017.2
08 25.06 ЮВ 5 н/о н/о +17.9 +15.6 86 +17 +17 1023.7 1016.9
09 25.06 ЮВ 4 н/о н/о +17.6 +15.6 88 +17 +17 1023.7 1017.0
10 25.06 ЮВ 5 н/о н/о +18.3 +15.9 86 +18 +18 1023.7 1017.0
11 25.06 ЮВ 5 н/о н/о +20.0 +16.8 82 +23 +23 комфорт 1023.0 1016.3

 

Местоположение метеостанции Стенхой (Дания): широта 57.38 долгота 10.33 высота над уровнем моря 55 м.

В архиве по умолчанию представлена погода в Стенхое за последнюю неделю. Архивные данные за месяц целиком и за предыдущие месяцы, начиная с января 2011 года, Вы можете получить, выбрав интересующий диапазон дат из раскрывающегося списка и нажав кнопку "Ввод!".


*Определитесь, кто Вы:
робот инопланетянин человек

Внимание! Время в таблицах - всемирное. Для получения местного времени необходимо прибавить поправку, которая равна 1 ч.

Смотрите также архив погоды в соседних городах и на ближайших метеорологических станциях:

Погода в Тылструпе (Дания) (32 км)
Погода в Ольборге (Дания) (42 км)
Погода в Скагене (Дания) (43 км)
Погода в Винге (Швеция) (82 км)
Погода в Алеструпе (Дания) (86 км)
Погода в Хальде V (Дания) (91 км)
Погода на Маяке Nidingen (Швеция) (95 км)
Погода на Маяке Maseskar (Швеция) (100 км)
Погода в Энхолте (Дания) (103 км)
Погода в Гетеборге (Швеция) (107 км)

Пояснения к столбцам:

Ветер - указаны скорость ветра в м/с - средняя за 10 мин, порывы в срок и между сроками (в фигурных скобках) и направление, откуда дует ветер: С - северный, СВ - северо-восточный, В - восточный, ЮВ - юго-восточный, Ю - южный, ЮЗ - юго-западный, З - западный, СЗ - северо-западный.
Видимость - горизонтальная дальность видимости в метрах или километрах. При видимости от 1 до 10 км при отсутствии осадков обычно наблюдается дымка, при ухудшении видимости до 1 км и менее - туман. В сухую погоду видимость может ухудшаться дымом, пылью или мглою.
Явления - указаны атмосферные явления, наблюдавшиеся в срок или в последний час перед сроком; фигурными скобками обозначены явления, наблюдавшиеся между сроками (за 1-3 часа до срока); квадратными скобками обозначены град или гололедные отложения с указанием их диаметра в мм.
Облачность - указаны через наклонную черту общая и нижняя облачность в баллах и высота нижней границы облаков в метрах; квадратными скобками обозначены формы облаков: Ci - перистые, Cs - перисто-слоистые, Cc - перисто-кучевые, Ac - высококучевые, As - высокослоистые, Sc - слоисто-кучевые, Ns - слоисто-дождевые, Cu - кучевые, Cb - кучево-дождевые. Подробнее классификацию облаков см. в Атласе облаков (PDF).
T - Температура воздуха - температура, измеренная на высоте 2 м над землей.
Td - Температура точки росы - температура, при понижении до которой содержащийся в воздухе водяной пар достигнет насыщения.
f - Относительная влажность воздуха - влажноcть воздуха, измеренная на высоте 2 м над землей.
Te - Эффективная температура - температура, которую ощущает одетый по сезону человек в тени. Характеристика душности погоды. При расчете учитывается влияние влажности воздуха и скорости ветра на теплоощущения человека.
Tes - Эффективная температура на солнце - температура, которую ощущает человек, с поправкой на солнечный нагрев. Характеристика знойности погоды. Зависит от высоты солнца над горизонтом, облачности и скорости ветра. Ночью, в пасмурную погоду, а также при ветре 12 м/с и более поправка равна нулю.
P - Атмосферное давление - приведенное к уровню моря атмосферное давление.
Po - Атмосферное давление - измеренное на уровне метеостанции атмосферное давление.
Tmin - Минимальная температура - минимум температуры воздуха на высоте 2 м над землей.
Tmax - Максимальная температура - максимум температуры воздуха на высоте 2 м над землей.
R - Количество осадков - Количество выпавших осадков за период времени, мм. При наведении курсора мыши на число - период времени, за который выпало указанное количество осадков.
R24 - Количество осадков - Количество выпавших осадков за 24 часа, мм.
S - Снежный покров - Высота снежного покрова, см. При наведении курсора мыши на число - состояние снежного покрова и степень покрытия местности в баллах.